Location: Antin
(43.3330°N, 0.2804°E)
Time: 04:56:30
(UTC+00:00)

Gbstr 26 Del rocket - Pass Details

Date: 16 October 2021
Orbit: 492 x 1263 km, 51.8° (Epoch: 02 December)

Event Time Altitude Azimuth Distance (km) Brightness Sun altitude
Rises 19:32:08 0° 302° (WNW) 3,866 8.3 -25.8°
Reaches altitude 10° 19:34:42 10° 302° (WNW) 2,998 7.4 -26.2°
Maximum altitude 19:42:14 88° 32° (NNE) 1,231 4.4 -27.6°
Enters shadow 19:44:00 60° 119° (ESE) 1,405 4.4 -27.9°
